Weather History for Grand Marais, MN

Change the Weather History Date:

Wednesday, January 8, 2014

  Actual Average (KCKC) Record (KCKC)
Temperature  
Mean Temperature -2 °F -  
Max Temperature 10 °F 14 °F 42 °F (2003)
Min Temperature -14 °F 1 °F -18 °F (2014)
Degree Days  
Heating Degree Days 67    
Moisture  
Dew Point -13 °F    
Average Humidity 63    
Maximum Humidity 83    
Minimum Humidity 41    
Precipitation  
Precipitation 0.00 in - - ()
Sea Level Pressure  
Sea Level Pressure 30.37 in    
Wind  
Wind Speed 7 mph (WNW)    
Max Wind Speed 24 mph    
Max Gust Speed 44 mph    
Averages and records for this station are not official NWS values.
T = Trace of Precipitation, MM = Missing Value Source: NWS Daily Summary

Daily Weather History Graph

Daily Weather History Graph

Search for Another Location

Airport:

Trip Planner

Search our weather history database for the weather conditions in past years. The results will help you decide how hot, cold, wet, or windy it might be!

Date:

Astronomy

Jan. 08, 2014 Rise Set
Actual Time 7:48 AM CST 4:27 PM CST
Civil Twilight 7:13 AM CST 5:03 PM CST
Nautical Twilight 6:34 AM CST 5:42 PM CST
Astronomical Twilight 5:57 AM CST 6:19 PM CST
Moon 11:34 AM CST (1/8) 12:38 AM CST (1/8)
Length of Visible Light 9h 49m
Length of Day
8h 38m
First Quarter, 56% of the Moon is Illuminated
Jan 8
First Quarter
Jan 15
Full
Jan 23
Last Quarter
Jan 30
New
Feb 6
First Quarter

Hourly Weather History & Observations

Time (CST) Temp. Windchill Dew Point Humidity Pressure Visibility Wind Dir Wind Speed Gust Speed Precip Events Conditions
12:56 AM -6.0 °F -16.9 °F -14.1 °F 68% 30.24 in - Variable 4.6 mph - N/A   Unknown
1:56 AM -6.0 °F -23.6 °F -14.1 °F 68% 30.25 in - SSW 10.4 mph - N/A   Unknown
2:56 AM -7.1 °F -18.1 °F -15.0 °F 68% 30.27 in - Variable 4.6 mph - N/A   Unknown
3:56 AM -8.0 °F -16.9 °F -17.0 °F 65% 30.29 in - Variable 3.5 mph - N/A   Unknown
4:56 AM -7.1 °F -22.8 °F -13.0 °F 75% 30.29 in - WSW 8.1 mph 16.1 mph N/A   Unknown
5:56 AM -7.1 °F - -15.0 °F 68% 30.29 in - Calm Calm - N/A   Unknown
6:56 AM -9.0 °F -35.8 °F -18.0 °F 65% 30.26 in - NNW 24.2 mph 43.7 mph N/A   Unknown
7:56 AM -8.0 °F -32.2 °F -17.0 °F 65% 30.27 in - NNW 19.6 mph 35.7 mph N/A   Unknown
8:56 AM -0.0 °F -20.1 °F -4.0 °F 83% 30.34 in - SSW 16.1 mph 26.5 mph N/A   Unknown
9:56 AM -0.9 °F -12.7 °F -9.0 °F 69% 30.37 in - Variable 5.8 mph - N/A   Unknown
10:56 AM 1.9 °F -5.6 °F -13.0 °F 50% 30.38 in - Variable 3.5 mph - N/A   Unknown
11:56 AM 6.1 °F -4.3 °F -13.0 °F 41% 30.37 in - Variable 5.8 mph 16.1 mph N/A   Unknown
12:56 PM 9.0 °F -2.2 °F -9.9 °F 42% 30.36 in - Variable 6.9 mph 21.9 mph N/A   Unknown
1:56 PM 10.0 °F -1.9 °F -6.0 °F 48% 30.37 in - West 8.1 mph 16.1 mph N/A   Unknown
2:56 PM 8.1 °F -0.5 °F -9.0 °F 46% 30.39 in - Variable 4.6 mph - N/A   Unknown
3:56 PM 6.1 °F -2.8 °F -8.0 °F 53% 30.42 in - Variable 4.6 mph - N/A   Unknown
4:56 PM 3.0 °F -6.4 °F -8.0 °F 60% 30.45 in - WNW 4.6 mph - N/A   Unknown
5:56 PM -0.0 °F -7.9 °F -11.0 °F 60% 30.47 in - Variable 3.5 mph - N/A   Unknown
6:56 PM -9.0 °F -18.2 °F -16.1 °F 71% 30.49 in - West 3.5 mph - N/A   Unknown
7:56 PM 1.0 °F -6.7 °F -9.9 °F 60% 30.48 in - Variable 3.5 mph - N/A   Unknown
8:56 PM -7.1 °F - -15.0 °F 68% 30.49 in - Calm Calm - N/A   Unknown
9:56 PM -11.9 °F - -17.0 °F 78% 30.49 in - Calm Calm - N/A   Unknown
10:56 PM -14.1 °F -26.3 °F -20.0 °F 75% 30.49 in - NNW 4.6 mph - N/A   Unknown
11:56 PM -5.1 °F -15.8 °F -15.0 °F 62% 30.47 in - NW 4.6 mph - N/A   Unknown